Andrews AFB, MD

11:51 PM EDT on March 22, 2017 (GMT -0400)
Andrews Air Force Base-Naf

Weather History for KADW - January, 2013

Change the Weather History Date:

Wednesday, January 30, 2013

  Actual Average Record
Temperature  
Mean Temperature 63 °F -  
Max Temperature 70 °F 41 °F 77 °F (2002)
Min Temperature 56 °F 24 °F 5 °F (2014)
Degree Days  
Heating Degree Days 2    
Growing Degree Days 13 (Base 50)    
Moisture  
Dew Point 58 °F    
Average Humidity 83    
Maximum Humidity 100    
Minimum Humidity 68    
Precipitation  
Precipitation 0.49 in - - ()
Sea Level Pressure  
Sea Level Pressure 29.61 in    
Wind  
Wind Speed 15 mph (SSW)    
Max Wind Speed 25 mph    
Max Gust Speed 36 mph    
Visibility 8 miles    
Events Rain    
Averages and records for this station are not official NWS values.
T = Trace of Precipitation, MM = Missing Value Source: NWS Daily Summary

Daily Weather History Graph

Daily Weather History Graph

Search for Another Location

Airport or City:

Trip Planner

Search our weather history database for the weather conditions in past years. The results will help you decide how hot, cold, wet, or windy it might be!

Date:

Astronomy

Jan. 30, 2013 Rise Set
Actual Time 7:15 AM EST 5:27 PM EST
Civil Twilight 6:46 AM EST 5:55 PM EST
Nautical Twilight 6:14 AM EST 6:27 PM EST
Astronomical Twilight 5:43 AM EST 6:58 PM EST
Moon 9:20 PM EST (1/30) 8:44 AM EST (1/30)
Length of Visible Light 11h 08m
Length of Day
10h 12m
Waning Gibbous, 88% of the Moon is Illuminated
Jan 30
Waning Gibbous
Feb 3
Last Quarter
Feb 10
New
Feb 17
First Quarter
Feb 25
Full

Hourly Weather History & Observations

Time (EST) Temp. Dew Point Humidity Pressure Visibility Wind Dir Wind Speed Gust Speed Precip Events Conditions
12:55 AM 56.7 °F 50.7 °F 80% 29.97 in 10.0 mi South 12.7 mph - N/A   Clear
1:55 AM 57.7 °F 51.8 °F 81% 29.95 in 10.0 mi South 12.7 mph - N/A   Clear
2:55 AM 59.2 °F 52.7 °F 79% 29.94 in 10.0 mi South 12.7 mph - N/A   Mostly Cloudy
3:55 AM 59.5 °F 53.8 °F 81% 29.89 in 10.0 mi South 15.0 mph - N/A   Clear
4:55 AM 59.5 °F 54.5 °F 83% 29.88 in 10.0 mi South 11.5 mph - N/A   Clear
5:55 AM 59.5 °F 54.7 °F 84% 29.86 in 10.0 mi South 11.5 mph - N/A   Partly Cloudy
6:55 AM 59.7 °F 55.4 °F 86% 29.82 in 10.0 mi South 17.3 mph - N/A   Clear
7:31 AM 59.0 °F 55.4 °F 88% 29.84 in 10.0 mi South 15.0 mph - N/A   Mostly Cloudy
7:55 AM 60.1 °F 56.5 °F 88% 29.83 in 10.0 mi South 12.7 mph - N/A   Overcast
8:55 AM 61.7 °F 57.7 °F 87% 29.82 in 10.0 mi South 16.1 mph - N/A   Overcast
9:14 AM 62.6 °F 59.0 °F 88% 29.81 in 10.0 mi South 19.6 mph - N/A   Scattered Clouds
9:55 AM 65.8 °F 59.0 °F 79% 29.80 in 10.0 mi South 18.4 mph 26.5 mph N/A   Clear
10:55 AM 67.3 °F 59.2 °F 75% 29.76 in 10.0 mi South 25.3 mph 32.2 mph N/A   Overcast
11:14 AM 68.0 °F 59.0 °F 73% 29.76 in 10.0 mi South 21.9 mph - N/A   Overcast
11:55 AM 67.8 °F 59.7 °F 75% 29.73 in 10.0 mi South 19.6 mph 33.4 mph N/A   Overcast
12:55 PM 68.2 °F 60.1 °F 75% 29.68 in 10.0 mi South 25.3 mph 32.2 mph N/A   Overcast
1:48 PM 68.0 °F 59.0 °F 73% 29.65 in 10.0 mi South 23.0 mph 28.8 mph N/A   Overcast
1:55 PM 69.1 °F 59.9 °F 72% 29.65 in 10.0 mi South 18.4 mph 29.9 mph N/A   Overcast
2:55 PM 69.8 °F 60.1 °F 71% 29.63 in 10.0 mi South 20.7 mph 26.5 mph N/A   Overcast
3:55 PM 70.2 °F 60.3 °F 71% 29.62 in 10.0 mi South 20.7 mph 25.3 mph N/A   Overcast
4:55 PM 70.3 °F 60.3 °F 70% 29.60 in 10.0 mi South 24.2 mph 32.2 mph N/A   Mostly Cloudy
5:55 PM 69.3 °F 60.4 °F 73% 29.57 in 10.0 mi South 17.3 mph - N/A   Overcast
6:55 PM 68.5 °F 59.7 °F 73% 29.52 in 10.0 mi SSE 16.1 mph - N/A   Mostly Cloudy
7:55 PM 69.6 °F 59.2 °F 69% 29.48 in 10.0 mi South 24.2 mph 33.4 mph N/A   Mostly Cloudy
8:21 PM 69.8 °F 59.0 °F 68% 29.47 in 10.0 mi South 24.2 mph 31.1 mph N/A   Light Drizzle
8:31 PM 68.0 °F 59.0 °F 73% 29.47 in 10.0 mi SSW 18.4 mph 28.8 mph N/A   Overcast
8:40 PM 68.0 °F 59.0 °F 73% 29.51 in 8.0 mi WNW 23.0 mph 33.4 mph N/A   Light Drizzle
8:42 PM 66.2 °F 57.2 °F 73% 29.50 in 2.5 mi WNW 19.6 mph 33.4 mph N/A Rain Rain
8:44 PM 64.4 °F 57.2 °F 77% 29.50 in 1.8 mi WNW 15.0 mph 33.4 mph N/A Rain Rain
8:45 PM 62.6 °F 57.2 °F 82% 29.50 in 1.5 mi WNW 12.7 mph 33.4 mph N/A Rain Heavy Rain
8:47 PM 60.8 °F 57.2 °F 88% 29.51 in 1.5 mi WNW 11.5 mph 33.4 mph N/A Rain Heavy Rain
8:50 PM 60.8 °F 57.2 °F 88% 29.50 in 1.5 mi NW 6.9 mph 33.4 mph N/A Rain Heavy Rain
8:51 PM 59.0 °F 57.2 °F 94% 29.49 in 2.0 mi NW 6.9 mph 32.2 mph N/A Rain Heavy Rain
8:53 PM 59.0 °F 57.2 °F 94% 29.49 in 4.0 mi NNW 6.9 mph - N/A Rain Rain
8:55 PM 59.0 °F 56.5 °F 91% 29.49 in 6.0 mi NNW 5.8 mph - 0.19 in Rain Rain
9:23 PM 57.2 °F 57.2 °F 100% 29.47 in 4.0 mi Calm Calm - N/A Rain Rain
9:26 PM 57.2 °F 57.2 °F 100% 29.47 in 4.0 mi Calm Calm - N/A Rain Light Rain
9:29 PM 57.2 °F 57.2 °F 100% 29.47 in 6.0 mi Calm Calm - N/A Rain Light Rain
9:33 PM 57.2 °F 57.2 °F 100% 29.46 in 7.0 mi Calm Calm - N/A Rain Light Rain
9:55 PM 57.4 °F 57.0 °F 99% 29.42 in 6.0 mi East 5.8 mph - 0.12 in Rain Light Rain
10:55 PM 57.6 °F 57.4 °F 99% 29.34 in 8.0 mi ESE 12.7 mph - 0.09 in Rain Light Rain
11:03 PM 59.0 °F 57.2 °F 94% 29.33 in 7.0 mi SE 12.7 mph - N/A Rain Rain
11:35 PM 64.4 °F 60.8 °F 88% 29.28 in 10.0 mi South 23.0 mph 32.2 mph N/A   Overcast
11:36 PM 64.4 °F 60.8 °F 88% 29.27 in 10.0 mi South 23.0 mph 31.1 mph N/A Rain Light Rain
11:55 PM 64.6 °F 60.8 °F 88% 29.24 in 10.0 mi South 25.3 mph 35.7 mph 0.09 in Rain Light Rain